Location: Allen Lane School
(37.8198°N, 89.7382°W)
Time: 04:45:19
(UTC+00:00)

Meteor 1-14 Rocket - Pass Details

Date: 02 July 2022
Orbit: 833 x 919 km, 81.3° (Epoch: 14 August)

Event Time Altitude Azimuth Distance (km) Brightness Sun altitude
Exits shadow 09:30:14 - 177° (S) 3,532 7.1 -12.1°
Rises 09:30:17 0° 177° (S) 3,516 7.0 -12.1°
Reaches altitude 10° 09:32:47 10° 173° (S) 2,569 6.4 -11.7°
Maximum altitude 09:38:31 61° 95° (E) 1,006 4.8 -10.9°
Drops below altitude 10° 09:44:11 10° 17° (NNE) 2,529 7.6 -10.0°
Sets 09:46:37 0° 14° (NNE) 3,458 8.3 -9.7°
